AOJ12 LOWW-LGKR

Flight info

Callsign AOJ12
Flight time N/A
Altitude 41000
Route ARSIN DCT NALOX DCT OSDUK DCT SIVLA DCT PERAN DCT RODON DCT LIMJA N732 PITAS
Aircraft CL60/M-SBDE1E2E3FGHIJ1J4J5J7M3RWXYZ/LB1V1D1

Departure

Time 2026-04-30 14:38
Airport Vienna International Airport (LOWW)

Arrival

Time N/A
Airport Corfu Ioannis Kapodistrias International Airport (LGKR)
Time Latitude Longitude Altitude Speed Heading
2026-04-30 14:11 48.12692 16.53710 608 ft 0 kts 295°
2026-04-30 14:32 48.12698 16.53675 608 ft 5 kts 253°
2026-04-30 14:32 48.12668 16.53645 608 ft 7 kts 206°
2026-04-30 14:33 48.12644 16.53566 608 ft 10 kts 212°
2026-04-30 14:33 48.12481 16.53497 608 ft 10 kts 199°
2026-04-30 14:33 48.12426 16.53537 608 ft 13 kts 117°
2026-04-30 14:34 48.12373 16.53700 608 ft 19 kts 117°
2026-04-30 14:34 48.12310 16.53892 608 ft 21 kts 115°
2026-04-30 14:34 48.12239 16.54109 608 ft 24 kts 116°
2026-04-30 14:34 48.12189 16.54265 608 ft 25 kts 116°
2026-04-30 14:35 48.12021 16.54779 608 ft 29 kts 117°
2026-04-30 14:35 48.11897 16.55160 608 ft 31 kts 116°
2026-04-30 14:35 48.11798 16.55464 608 ft 33 kts 116°
2026-04-30 14:36 48.11695 16.55784 608 ft 34 kts 115°
2026-04-30 14:36 48.11607 16.56049 608 ft 9 kts 116°
2026-04-30 14:36 48.11564 16.56138 608 ft 11 kts 165°
2026-04-30 14:36 48.11518 16.56115 608 ft 4 kts 229°
2026-04-30 14:37 48.11505 16.56043 608 ft 12 kts 267°
2026-04-30 14:37 48.11500 16.55887 608 ft 16 kts 269°
2026-04-30 14:37 48.11502 16.55742 608 ft 12 kts 279°
2026-04-30 14:37 48.11514 16.55692 608 ft 0 kts 296°
2026-04-30 14:38 48.11523 16.55666 608 ft 20 kts 296°
2026-04-30 14:38 48.11748 16.54972 608 ft 122 kts 297°
2026-04-30 14:38 48.12196 16.53602 1069 ft 159 kts 300°
2026-04-30 14:38 48.12448 16.52000 1962 ft 180 kts 273°
2026-04-30 14:39 48.12040 16.49980 2496 ft 231 kts 234°
2026-04-30 14:39 48.10684 16.48492 3398 ft 259 kts 202°
2026-04-30 14:39 48.08940 16.47533 4350 ft 278 kts 195°
2026-04-30 14:40 48.05103 16.47676 6217 ft 283 kts 172°
2026-04-30 14:40 48.03154 16.48039 7171 ft 286 kts 171°
2026-04-30 14:40 48.01172 16.48410 8137 ft 290 kts 171°
2026-04-30 14:40 47.99189 16.48779 9104 ft 294 kts 170°
2026-04-30 14:41 47.97142 16.48838 10082 ft 303 kts 187°
2026-04-30 14:41 47.95101 16.47779 11025 ft 318 kts 206°
2026-04-30 14:41 47.93097 16.46221 11770 ft 339 kts 208°
2026-04-30 14:41 47.90949 16.44546 12518 ft 354 kts 207°
2026-04-30 14:42 47.88625 16.43203 13286 ft 359 kts 191°
2026-04-30 14:42 47.86137 16.43036 14053 ft 360 kts 169°
2026-04-30 14:42 47.83685 16.43884 14806 ft 362 kts 161°
2026-04-30 14:42 47.81265 16.44858 15552 ft 366 kts 162°
2026-04-30 14:43 47.78795 16.45840 16308 ft 370 kts 161°
2026-04-30 14:43 47.76307 16.46828 17059 ft 373 kts 161°
2026-04-30 14:43 47.73770 16.47834 17822 ft 378 kts 161°
2026-04-30 14:43 47.71237 16.48837 18570 ft 383 kts 161°
2026-04-30 14:44 47.68666 16.49854 19327 ft 388 kts 161°
2026-04-30 14:44 47.66122 16.51150 20089 ft 386 kts 149°
2026-04-30 14:44 47.63948 16.53406 20857 ft 380 kts 130°
2026-04-30 14:44 47.62359 16.56458 21619 ft 374 kts 113°
2026-04-30 14:45 47.61274 16.59934 22366 ft 376 kts 108°
2026-04-30 14:45 47.60234 16.63496 23125 ft 380 kts 108°
2026-04-30 14:45 47.59148 16.67117 23896 ft 385 kts 111°
2026-04-30 14:45 47.57680 16.70476 24637 ft 398 kts 125°
2026-04-30 14:46 47.55636 16.73293 25292 ft 413 kts 140°
2026-04-30 14:46 47.53018 16.75273 25946 ft 426 kts 158°
2026-04-30 14:46 47.50078 16.76053 26505 ft 437 kts 173°
2026-04-30 14:46 47.47984 16.76250 26902 ft 441 kts 174°
2026-04-30 14:47 47.43905 16.76632 27731 ft 444 kts 174°
2026-04-30 14:47 47.40752 16.76934 28298 ft 447 kts 174°
2026-04-30 14:47 47.39920 16.77013 28439 ft 448 kts 174°
2026-04-30 14:48 47.36737 16.77315 28992 ft 451 kts 174°
2026-04-30 14:48 47.33610 16.77611 29479 ft 455 kts 174°
2026-04-30 14:48 47.30455 16.77911 29970 ft 457 kts 175°
2026-04-30 14:48 47.27272 16.78213 30462 ft 459 kts 175°
2026-04-30 14:49 47.24054 16.78517 30924 ft 462 kts 175°
2026-04-30 14:49 47.20856 16.78820 31297 ft 464 kts 175°
2026-04-30 14:49 47.17626 16.79126 31638 ft 467 kts 175°
2026-04-30 14:49 47.14391 16.79432 31982 ft 468 kts 175°
2026-04-30 14:50 47.07885 16.80047 32502 ft 473 kts 175°
2026-04-30 14:50 47.04559 16.80361 32722 ft 476 kts 175°
2026-04-30 14:51 46.97918 16.80987 33182 ft 479 kts 175°
2026-04-30 14:51 46.94611 16.81401 33450 ft 478 kts 172°
2026-04-30 14:51 46.88174 16.83754 33973 ft 475 kts 158°
2026-04-30 14:52 46.85119 16.85738 34196 ft 474 kts 150°
2026-04-30 14:52 46.79669 16.91090 34707 ft 470 kts 137°
2026-04-30 14:52 46.77180 16.94180 34970 ft 470 kts 137°
2026-04-30 14:53 46.72215 17.00339 35563 ft 468 kts 137°
2026-04-30 14:53 46.69732 17.03413 35851 ft 467 kts 137°
2026-04-30 14:54 46.64796 17.09509 36311 ft 468 kts 137°
2026-04-30 14:54 46.59819 17.15642 36694 ft 470 kts 137°
2026-04-30 14:55 46.54843 17.21756 37093 ft 471 kts 138°
2026-04-30 14:55 46.52351 17.24812 37294 ft 471 kts 138°
2026-04-30 14:55 46.47344 17.30941 37670 ft 471 kts 138°
2026-04-30 14:56 46.42342 17.37047 38014 ft 471 kts 138°
2026-04-30 14:56 46.37301 17.43186 38338 ft 472 kts 138°
2026-04-30 14:57 46.34804 17.46222 38482 ft 472 kts 138°
2026-04-30 14:57 46.29762 17.52339 38806 ft 473 kts 138°
2026-04-30 14:58 46.24723 17.58437 39143 ft 473 kts 139°
2026-04-30 14:58 46.22176 17.61513 39282 ft 473 kts 139°
2026-04-30 14:58 46.17072 17.67667 39317 ft 480 kts 139°
2026-04-30 15:00 46.04149 17.83178 39317 ft 487 kts 140°
2026-04-30 15:01 45.93728 17.95615 39314 ft 486 kts 140°
2026-04-30 15:01 45.85892 18.04925 39313 ft 486 kts 140°
2026-04-30 15:02 45.80537 18.10759 39318 ft 487 kts 148°
2026-04-30 15:03 45.71154 18.16153 39312 ft 485 kts 167°
2026-04-30 15:03 45.64644 18.18523 39316 ft 485 kts 167°
2026-04-30 15:04 45.48291 18.24465 39313 ft 485 kts 167°
2026-04-30 15:06 45.31907 18.30383 39316 ft 486 kts 167°
2026-04-30 15:07 45.18815 18.35086 39303 ft 486 kts 167°
2026-04-30 15:08 45.05604 18.38871 39282 ft 485 kts 176°
2026-04-30 15:09 44.88771 18.41234 39286 ft 485 kts 176°
2026-04-30 15:10 44.75358 18.43119 39280 ft 484 kts 176°
2026-04-30 15:11 44.55209 18.45942 39293 ft 485 kts 176°
2026-04-30 15:13 44.38464 18.48277 39287 ft 483 kts 177°
2026-04-30 15:14 44.15064 18.51519 39250 ft 483 kts 177°
2026-04-30 15:17 43.84959 18.55653 39232 ft 483 kts 177°
2026-04-30 15:19 43.58217 18.59292 39216 ft 482 kts 178°